Weather in Tommot

Russia / Sakha (Yakutia) Republic     58°57′31″N   126°17′15″E
temp.,
°C
wind,
m/s
gust,
m/s
humid.,
%
clouds,
%
prec.,
mm/h
press.,
hPa
HPBL,
m
21 june, mon
mon2100:00+17s218195 0.6 100716
03:00+15w11867 1.0 100711
06:00+18w018322 0.0 100860
09:00+24w115927 0.0 1007443
12:00+29wnw124220 0.0 10061421
15:00+27wnw124894 0.0 1004762
18:00+22wsw376822 0.4 1005275
21:00+17ne3792100 1.6 1007212
22 june, tue
tue2200:00+15s129283 0.8 100525
03:00+14ne11935 0.8 100610
06:00+17sw11861 0.0 100690
09:00+23w12635 0.0 1005565
12:00+27nw12485 0.0 10041268
15:00+29nnw01406 0.0 10032276
18:00+28ene11467 0.0 10011912
21:00+21e247265 0.1 1003103
23 june, wed
wed2300:00+16nw118914 0.6 100413
03:00+15sw119499 0.8 100411
06:00+18wsw11865 0.0 100599
09:00+23w23655 0.0 1004547
12:00+28wnw22495 0.0 10031413
15:00+29wsw333916 0.0 10022621
18:00+19ene51182100 1.6 1004439
21:00+17sw1192100 9.9 100324
24 june, thu
thu2400:00+16ssw1195100 0.3 100412
03:00+16w0196100 0.3 100311
06:00+17wsw119499 1.9 1004125
09:00+20w127896 3.4 1003558
12:00+25nw126038 0.0 10021260
15:00+23e1172100 4.6 1002428
18:00+20ese2790100 4.4 1001200
21:00+18ene1192100 5.2 100215
25 june, fri
fri2500:00+16ene1296100 0.1 100231
03:00+15nnw0195100 0.4 100311
06:00+16nnw1195100 0.1 100321
09:00+20nnw1176100 0.1 1004513
12:00+23ne335674 0.0 10031099
15:00+23nne2356100 0.0 10031049
18:00+23nne246177 0.1 1003575
21:00+18ne227859 0.1 100443